LiveATC.Net - Listen to live air traffic control over the Internet!


ICAO: KMTW  IATA: MTW   Airport: Manitowoc County Airport
City: Manitowoc   State/Province: Wisconsin
Country: United States   Continent: North America
KMTW METAR Weather: KMTW 261056Z AUTO 00000KT 6SM BR FEW003 14/12 A2973 RMK AO2 SLP080 T01390122
KMTW Flight Activity (FlightAware)
KMTW Airport Info   (AirNav) (iFlightPlanner)
KMTW VFR Sectional Chart   (iFlightPlanner) 
KMTW IFR Low Chart   (iFlightPlanner) 

KMTW CTAF
Feed Status: UP   Listeners: 0
Listen right in your browser - requires Flash (in browser, requires Flash)
Click here to listen with your own player (launches your MP3 player)
KMTW CTAF Audio Archives
FacilityFrequency
Manitowoc CTAF122.800

NOTICE

Unauthorized use prohibited. See LiveATC.net Terms of Service


Find LiveATC Audio Streams


Airport/ARTCC Code

Frequency Search
(e.g., 124.400, 128.75)
Site-wide search
 


Browse LiveATC Feeds
LiveATC Coverage Map
Top 50 LiveATC Feeds
Bad Weather Areas

LiveATC FAQ
Offer a LiveATC Feed
Contact LiveATC.net
Press Inquiries

LiveATC on iPhone
LiveATC on Android

Windows Phone
Windows 8/10

LiveATC Mobile
(Mobile browser)

ATC Audio Archives
Interesting Recordings

LiveATC Forums


Home Page
About LiveATC.net
Make a Donation
Terms of Use
Privacy Policy

Canadian Air Freqs

AIRMETs/SIGMETs

FAA Airport Status
Nat'l Airspace Status
Arrival Demand Charts


Server Software By:
Icecast.org
Liquidsoap